Location: DARK SKY Beskydy - Park tmavé oblohy, www.darkskybeskydy.cz
(49.4926°N, 18.5016°E)
Time: 11:07:26
(UTC+02:00)

BlueWalker 3 - Pass Details

Date: 26 June 2024
Orbit: 480 x 491 km, 53.2° (Epoch: 23 July)

Event Time Altitude Azimuth Distance (km) Brightness Sun altitude
Rises 00:05:03 0° 291° (WNW) 2,540 6.0 -16.5°
Reaches altitude 10° 00:07:14 10° 295° (WNW) 1,658 5.0 -16.6°
Maximum altitude 00:10:58 68° 19° (NNE) 521 2.1 -16.7°
Drops below altitude 10° 00:14:40 10° 103° (ESE) 1,653 4.3 -16.8°
Enters shadow 00:14:45 10° 103° (ESE) 1,687 4.4 -16.8°
